Regional Weather Roundup
Issued by NWS

Home | Current Version | Previous Version | Graphics & Text | Print | Product List | Glossary Off
Versions: 1 2 3 4 5 6 7 8 9 10 11 12 13 14 15 16 17 18 19 20 21 22 23 24 25 26 27 28 29 30 31 32 33 34 35 36 37 38 39 40 41 42 43 44 45 46 47 48 49 50

000
ASUS43 KMKX 250138
RWRWI

WISCONSIN REGIONAL WEATHER ROUNDUP
NATIONAL WEATHER SERVICE MILWAUKEE/SULLIVAN WI
900 PM CDT SUN MAY 24 2015

NOTE: "FAIR" INDICATES FEW OR NO CLOUDS BELOW 12,000 FEET WITH NO
SIGNIFICANT WEATHER AND/OR OBSTRUCTIONS TO VISIBILITY.

WIZ001-002-006>008-014>016-023>028-250300-
NORTHWEST WISCONSIN

CITY           SKY/WX    TMP DP  RH WIND       PRES   REMARKS
SUPERIOR ARPT  DRIZZLE   63  56  80 S5        29.95S
ASHLAND        CLOUDY    64  54  69 S7        29.97S
HAYWARD        LGT RAIN  59  56  89 E6        29.96F FOG
SIREN          RAIN      59  57  94 E9        29.92F
CUMBERLAND     RAIN      55  55 100 E9        29.92F
RICE LAKE      LGT RAIN  58  56  91 E7        29.94S
CHETEK         RAIN      58  57  98 E6        29.92F
LADYSMITH      LGT RAIN  58  57  95 E7        29.97S
EAU CLAIRE     LGT RAIN  58  56  93 E9        29.89F FOG
MENOMONIE      DRIZZLE   58  58  97 E10       29.90S
NEW RICHMOND   DRIZZLE   58  58 100 E9        29.89F
OSCEOLA        RAIN      59  59 100 E8        29.91F
$$

WIZ003>005-009-010-017-018-250300-
NORTH CENTRAL WISCONSIN

CITY           SKY/WX    TMP DP  RH WIND       PRES   REMARKS
MANITOWISH WTR RAIN      57  57 100 CALM      29.99F
ARBOR VITAE    LGT RAIN  58  56  94 SE5       30.00F
WOODRUFF       LGT RAIN  58  56  94 SE5       30.00F
RHINELANDER    LGT RAIN  56  54  93 SE9       30.01F
EAGLE RIVER    RAIN      56  55  96 SE6       30.00F
LAND O LAKES   LGT RAIN  58  56  94 CALM      30.01F
PHILLIPS       LGT RAIN  56  55  97 E6        29.98S
TOMAHAWK       LGT RAIN  56  55  95 CALM      30.00S
MEDFORD        RAIN      56  55  97 E5        29.95F
MERRILL        RAIN      57  57 100 E5        29.98F
$$

WIZ029-030-035-036-043>047-250300-
CENTRAL WISCONSIN

CITY           SKY/WX    TMP DP  RH WIND       PRES   REMARKS
WAUSAU         RAIN      57  55  93 E8G16     29.95F FOG
MOSINEE        DRIZZLE   55  55 100 E8        29.97F
MARSHFIELD     RAIN      57  54  89 SE14G21   29.94F FOG
STEVENS POINT  LGT RAIN  54  53  97 E8        29.97F
WAUPACA        DRIZZLE   57  57  97 E8        29.98F
WAUTOMA        CLOUDY    57  57 100 E7        29.97F
WISC RAPIDS    LGT RAIN  57  53  86 SE8       29.96F
CAMP DOUGLAS   CLOUDY    57  57 100 E13       29.91F
$$

WIZ011>013-019>022-031-037>040-048>050-250300-
NORTHEAST WISCONSIN

CITY           SKY/WX    TMP DP  RH WIND       PRES   REMARKS
ANTIGO         RAIN      55  55  99 E10       30.00F
SHAWANO        LGT RAIN  58  55  92 CALM      30.01F
OCONTO         CLOUDY    55  55 100 SE5       30.03S
STURGEON BAY   CLOUDY    55  52  88 SE8       30.05F
GREEN BAY      RAIN      56  54  93 NE7       30.01F FOG
MANITOWOC      HVY RAIN  55  55 100 E9        30.00F FOG
APPLETON       LGT RAIN  55  55 100 NE8       30.00S FOG
CLINTONVILLE   RAIN      55  54  94 E5        30.00F
OSHKOSH        RAIN      57  53  86 SE10      29.96F FOG
$$

WIZ032>034-041-042-053>061-250300-
SOUTHWEST WISCONSIN

CITY           SKY/WX    TMP DP  RH WIND       PRES   REMARKS
LA CROSSE      CLOUDY    61  57  87 SE6       29.87F
SPARTA         LGT RAIN  58  56  93 E7        29.90F
VIROQUA        CLOUDY    58  58 100 E14       29.88F
BOSCOBEL       CLOUDY    61  58  90 NE3       29.88S FOG
PRAIRIE DU CHI RAIN      62  59  88 E5        29.85F
PLATTEVILLE    CLOUDY    62  61  96 E14       29.88R
$$

WIZ056-057-062-063-064-067-068-250300-
SOUTH CENTRAL WISCONSIN

CITY           SKY/WX    TMP DP  RH WIND       PRES   REMARKS
REEDSBURG      CLOUDY    57  55  95 E5        29.91F
BARABOO/DELLS  CLOUDY    56  54  91 E9        29.92F
LONE ROCK      LGT RAIN  59  56  89 E15       29.90F FOG
MINERAL POINT  CLOUDY    61  59  94 E12G18    29.89S FOG
MADISON        LGT RAIN  58  54  86 SE10      29.93R
MIDDLETON      CLOUDY    60  58  93 E8        29.92F
WATERTOWN      RAIN      57  57 100 E10       29.93S
MONROE         LGT RAIN  59  59 100 E8        29.91F VSB 3/4
JANESVILLE     LGT RAIN  63  59  88 E12G17    29.90S
$$

WIZ051-052-058>065-066-070>072-250300-
SOUTHEAST WISCONSIN

CITY           SKY/WX    TMP DP  RH WIND       PRES   REMARKS
MILWAUKEE      CLOUDY    54  50  86 SE6       29.96F
WAUKESHA       CLOUDY    54  52  94 E9        29.96F
MILWAUKEE/TIMM MOCLDY    54  52  94 E5        29.97F
RACINE         CLOUDY    53  48  83 E6        29.96F
BURLINGTON     LGT RAIN  58  55  90 E7        29.94S
KENOSHA        CLOUDY    56  53  90 E8        29.95F
FOND DU LAC    LGT RAIN  57  53  86 SE7       29.96S
SHEBOYGAN      LGT RAIN  55  53  93 E9        29.99F FOG
WEST BEND      LGT RAIN  55  54  94 E8        29.97F
JUNEAU         RAIN      56  54  93 E16       29.94F
$$

LSZ147-162-250300-
LAKE SUPERIOR

STATION/POSITION TIME  TEMP    WIND        PRES    WAVE
                       AIR SEA DIR/SP/G            HT/PER
                 (UTC) (F)     (DEG/KT/KT) (MB)    (FT/S)
W MID LAKE BUOY  0050   42 37  130/  8/  8   N/A     0
DEVILS ISLAND    0100   62     170/  8/  9   N/A
PORT WING        0000   69     190/  6/  8   N/A
SAXON HARBOR     0000   68     200/  3/  6   N/A
$$

LMZ867-665-643>646-250300-
LAKE MICHIGAN

STATION/POSITION TIME  TEMP    WIND        PRES    WAVE
                       AIR SEA DIR/SP/G            HT/PER
                 (UTC) (F)     (DEG/KT/KT) (MB)    (FT/S)
CHAMBERS ISLAND  0000   56     140/  2/  5   N/A
N MID LAKE BUOY  0050   44 36  200/  6/  6   N/A     1/ 4
NORTHPORT PIER   0000   56     160/  4/  9   N/A
SISTER BAY       0017   54     150/  9/ 12   N/A
KEWAUNEE LAKESHO 0100   50      60/  3/  5   N/A
SHEBOYGAN LAKESH 0100   49      30/  7/  8   N/A
PORT WASHINGTON  0000   51      40/ 10/ 14   N/A
ATWATER BUOY     0100   51 46  110/  6/ 10   N/A
MILWAUKEE LAKESH 0100   51     220/  2/  4   N/A
S MID LAKE BUOY  0050   48 38   40/  6/  8   N/A     1
$$

TC  - TEMPERATURE IN CELSIUS
VSB - VISIBILITY IN STATUTE MILES
WCI - WIND CHILL INDEX
HX  - HEAT INDEX




USA.gov is the U.S. government's official web portal to all federal, state and local government web resources and services.